Tracking 31030 objects as of 17-Jul-2025
HD Live streaming from Space Station
objects crossing your sky now

ION SCV-007

Track ION SCV-007 now!
10-day predictions
ION SCV-007 is classified as:


NORAD ID: 55060
Int'l Code: 2023-001BD
Perigee: 637.3 km
Apogee: 654.1 km
Inclination: 97.9 °
Period: 97.5 minutes
Semi major axis: 7016 km
RCS: Unknown
Launch date: January 3, 2023
Source: Italy (IT)
Launch site: AIR FORCE EASTERN TEST RANGE (AFETR)

Uplink (MHz):
Downlink (MHz): 401.415
Beacon (MHz):
Mode: 1200bps FSK
Call sign:
Status: Active

Your satellite tracking list
Your tracking list is empty




NASA's NSSDC Master Catalog

Two Line Element Set (TLE):
1 55060U 23001BD  25197.59199693  .00000320  00000-0  52586-4 0  9992
2 55060  97.9481 261.4512 0011997 346.0310  14.0566 14.77071105136703
Source of the keplerian elements: AFSPC